sat.trackr.live / text

‹ back to catalog

STARLINK-30488

NORAD 57931 · 2023-147U

PAYLOAD ACTIVE UNKNOWN

§ Identity

Operator
Country
US
Launch date
2023-09-24
Launch site
AFETR
Launch vehicle
Mass (kg)
RCS (m²)

Purposes: comms

External: N2YO · Heavens-Above · Gunter

§ Orbital elements

Epoch: 2026-05-25T00:57:29.900160Z

Period
94.27 min
Inclination
43.0045°
Eccentricity
0.0001719
Mean motion
15.27581276 rev/d
Perigee alt
481.9 km
Apogee alt
484.2 km
Semi-major
6,861.2 km
B*
-1.3519e-5
RAAN
257.5154°
Arg perigee
255.6510°
Mean anomaly
104.4151°
Rev number
14,826

§ Raw data

STARLINK-304881 57931U 23147U   26145.03992940 -.00000634  00000+0 -13519-4 0  99932 57931  43.0045 257.5154 0001719 255.6510 104.4151 15.27581276148265

JSON: /api/v1/satellites/57931 · /tle

For live sub-satellite position, see the globe view (requires WebGL).

§ Visibility from observer

Set your observer location to see the next 7 days of passes ≥ 10°. The values pass through the URL so the page stays shareable.

No JS? Fill the form by hand. The geolocation button needs JavaScript.